To NAV CANADA Home Page Login to a new session Search on AWWS site Feedback and Comments Disclaimer Vers la page française équivalente Tips FAQ What's new on the site To the Forecasts and Observations / NOTAM section To "File a Flight Plan" website Publications and other links Update of the User's profile FIC Telephone Numbers My Weather Data Folder Route Weather Data Regional Weather Data Local Weather Data To the Forecasts and Observations / NOTAM section
Request Generated 08/24/2016 at 13:40:14 UTC . Weather information available at that time is displayed.

METAR/TAF

OLD CROW/YT    

METAR CYOC 241300Z 00000KT 1/2SM FG BKN004 05/04 A3021 RMK FG7ST1 ST
TR CLIMAT 14.5/4.5/TR MM SLP243=
LWIS CYOC 241200Z AUTO VRB02KT 05/05 A3019=
LWIS CYOC 241100Z AUTO 05002KT 06/05 A3018=

*** REMARK        : Forecast period has ended; this was the last TAF issued
*** REMARQUE : La période de prévision est échue; ceci était le dernier TAF qui a été émis
TAF CYOC 231738Z 2318/2401 04010KT P6SM BKN040 OVC090 TEMPO 2318/2401
P6SM -SHRA BKN020 OVC040
BECMG 2322/2324 VRB03KT
RMK NXT FCST WILL BE ISSUED AT 241445Z=
Your time UTC time
Weather data provided by Environment Canada and NAV CANADA